FW6767 Weather Reports


time (UTC)temp
C
wind
direction
speed
KPH
gust
KPH
rain 1hr
cm
rain 24hr
cm
rain mn
cm
humidity
%
barometer
mb
20260906071604 21 0 0.0 0.0 0.00 0.00 0.00 95 1012.6
20260906064558 21 0 0.0 0.0 0.00 0.00 0.00 94 1012.6
20260906063102 21 0 0.0 0.0 0.00 0.00 0.00 94 1012.9
20260906061605 21 0 0.0 0.0 0.00 0.00 0.00 94 1013.3
20260906054559 21 0 0.0 0.0 0.00 0.00 0.00 94 1013.6
20260906053100 21 0 0.0 1.6 0.00 0.00 0.00 94 1013.9
20260906051607 21 0 0.0 3.2 0.00 0.00 0.00 94 1014.0
20260906050057 22 0 0.0 1.6 0.00 0.00 0.00 93 1013.9
20260906044604 22 0 0.0 1.6 0.00 0.00 0.00 93 1013.8
20260906043100 22 0 0.0 1.6 0.00 0.00 0.00 93 1013.8
20260906041605 22 0 0.0 3.2 0.00 0.00 0.00 93 1014.0
20260906040113 22 0 1.6 3.2 0.00 0.00 0.00 93 1014.1
20260906034603 22 67 0.0 0.0 0.00 0.00 0.00 93 1014.2
20260906033106 22 0 0.0 0.0 0.00 0.00 0.00 92 1014.1
20260906031601 22 0 0.0 0.0 0.00 0.00 0.00 92 1014.1
20260906030108 22 0 0.0 3.2 0.00 0.00 0.00 92 1013.9
20260906024625 22 0 1.6 3.2 0.00 0.00 0.00 92 1013.6
20260906023104 22 67 0.0 3.2 0.00 0.00 0.00 91 1013.6
20260906021559 22 0 0.0 3.2 0.00 0.00 0.00 91 1014.0
20260906020059 23 0 0.0 3.2 0.00 0.00 0.00 91 1013.8
20260906014612 23 0 0.0 0.0 0.00 0.00 0.00 91 1013.8
20260906013103 23 0 0.0 0.0 0.00 0.00 0.00 90 1013.6
20260906011603 23 0 0.0 0.0 0.00 0.00 0.00 89 1013.5
20260906010119 23 0 0.0 0.0 0.00 0.00 0.00 89 1013.3
20260906004602 23 0 0.0 1.6 0.00 0.00 0.00 89 1013.3
20260906003118 24 67 0.0 3.2 0.00 0.00 0.00 89 1012.7
20260906001558 25 0 0.0 1.6 0.00 0.00 0.00 86 1012.6
20260906000109 25 0 0.0 3.2 0.00 0.00 0.00 85 1012.7
20260905234609 26 0 0.0 3.2 0.00 0.00 0.00 83 1012.5
20260905233102 26 67 0.0 1.6 0.00 0.00 0.00 84 1012.8
20260905231559 26 0 0.0 1.6 0.00 0.00 0.00 83 1012.8
20260905230106 26 67 0.0 1.6 0.00 0.00 0.00 82 1012.7
20260905224602 26 0 0.0 1.6 0.00 0.00 0.00 81 1012.7
20260905223100 27 0 1.6 4.8 0.00 0.00 0.00 76 1012.5
20260905221602 27 0 0.0 3.2 0.00 0.00 0.00 77 1012.5
20260905220109 27 0 0.0 1.6 0.00 0.00 0.00 78 1012.6
20260905214619 27 61 0.0 3.2 0.00 0.00 0.00 74 1012.6
20260905213106 27 0 0.0 3.2 0.00 0.00 0.00 71 1013.1
20260905211614 28 0 1.6 4.8 0.00 0.00 0.00 70 1013.3
20260905210115 27 0 1.6 8.0 0.00 0.00 0.00 72 1013.4
20260905204603 27 0 0.0 1.6 0.00 0.00 0.00 78 1013.2
20260905203111 27 0 0.0 3.2 0.00 0.00 0.00 78 1013.4
20260905201615 27 360 0.0 4.8 0.00 0.00 0.00 71 1013.3
20260905200107 28 54 1.6 6.4 0.00 0.00 0.00 70 1013.8
20260905194605 28 113 1.6 11.3 0.00 0.00 0.00 67 1013.9
20260905193116 29 26 1.6 11.3 0.00 0.00 0.00 66 1014.1
20260905191622 30 28 6.4 24.1 0.00 0.00 0.00 60 1014.2
20260905190108 33 129 8.0 29.0 0.00 0.00 0.00 51 1014.3
20260905184620 37 239 0.0 4.8 0.00 0.00 0.00 44 1013.0
20260905183111 37 173 0.0 3.2 0.00 0.00 0.00 46 1013.2
20260905181605 36 166 1.6 6.4 0.00 0.00 0.00 51 1013.1
20260905180107 35 0 0.0 3.2 0.00 0.00 0.00 55 1013.6
20260905174604 36 0 0.0 4.8 0.00 0.00 0.00 51 1013.6
20260905173103 36 182 1.6 4.8 0.00 0.00 0.00 53 1013.7
20260905171602 36 123 3.2 8.0 0.00 0.00 0.00 53 1013.8
20260905170112 36 242 1.6 3.2 0.00 0.00 0.00 57 1014.1
20260905164602 35 180 0.0 4.8 0.00 0.00 0.00 57 1014.3
20260905163106 35 311 1.6 4.8 0.00 0.00 0.00 56 1014.7
20260905161600 34 96 0.0 3.2 0.00 0.00 0.00 67 1014.9
20260905160059 33 0 0.0 3.2 0.00 0.00 0.00 65 1014.8
20260905154606 32 0 0.0 4.8 0.00 0.00 0.00 68 1015.0
20260905153103 31 266 0.0 4.8 0.00 0.00 0.00 70 1015.1
20260905151603 31 86 1.6 6.4 0.00 0.00 0.00 70 1015.3
20260905150059 30 74 0.0 3.2 0.00 0.00 0.00 74 1015.3
20260905144602 29 74 1.6 4.8 0.00 0.00 0.00 76 1015.2
20260905143105 29 0 0.0 1.6 0.00 0.00 0.00 80 1015.3
20260905141600 28 53 1.6 3.2 0.00 0.00 0.00 80 1015.4
20260905140100 28 53 0.0 3.2 0.00 0.00 0.00 83 1015.6
20260905134603 27 0 0.0 3.2 0.00 0.00 0.00 84 1015.7
20260905133101 27 0 0.0 0.0 0.00 0.00 0.00 85 1015.9
20260905131559 27 0 0.0 0.0 0.00 0.00 0.00 89 1015.6
20260905130101 26 0 0.0 0.0 0.00 0.00 0.00 91 1015.6
20260905124601 24 0 0.0 0.0 0.00 0.00 0.00 97 1015.5
20260905123105 23 0 0.0 0.0 0.00 0.00 0.00 97 1015.6
20260905121602 23 0 0.0 0.0 0.00 0.00 0.00 97 1015.7
20260905120105 22 0 0.0 0.0 0.00 0.00 0.00 96 1015.6
20260905114557 22 0 0.0 0.0 0.00 0.00 0.00 96 1015.3
20260905113106 22 0 0.0 0.0 0.00 0.00 0.00 96 1015.2
20260905111646 22 0 0.0 0.0 0.00 0.00 0.00 96 1015.0
20260905104604 22 0 0.0 0.0 0.00 0.00 0.00 96 1014.6
20260905103118 22 0 0.0 0.0 0.00 0.00 0.00 96 1014.7
20260905101607 22 0 0.0 0.0 0.00 0.00 0.00 96 1014.4
20260905100121 23 0 0.0 0.0 0.00 0.00 0.00 96 1014.3
20260905094604 23 0 0.0 1.6 0.00 0.00 0.00 96 1014.4
20260905093118 23 0 0.0 1.6 0.00 0.00 0.00 96 1014.3
20260905091613 23 0 0.0 1.6 0.00 0.00 0.00 96 1014.5
20260905090103 23 0 0.0 0.0 0.00 0.00 0.00 96 1014.6
20260905084600 23 0 0.0 0.0 0.00 0.00 0.00 95 1014.5
20260905083102 23 0 0.0 0.0 0.00 0.00 0.00 95 1014.5
20260905081604 23 0 0.0 1.6 0.00 0.00 0.00 96 1014.9
20260905080104 23 0 0.0 1.6 0.00 0.00 0.00 96 1015.0
20260905074600 23 0 0.0 0.0 0.00 0.00 0.00 95 1015.1
20260905073103 23 337 0.0 1.6 0.00 0.00 0.00 95 1015.0